INMARSAT 3-F2

Last updated on Oct. 26, 2020, 5:52 a.m. UTC

1 24307U 96053A   20299.85506222 -.00000012  00000-0  00000-0 0  9995
2 24307   5.1855  71.0756 0003294 119.0463 224.5835  0.99977139 88313
UTC
Height (km)
Latitude
Longitude
Inclination
Orbital Period
UTC large
Height (km)
Speed (km/s)
/
Latitude / Longitude
Inclination (degrees)
Orbital Period (minutes)
Azimuth
Elevation
Range (km)
Doppler Factor
iOS Compass Heading
iOS Angle

Next 30 passes for location: Hong Kong

Rise time Rise Azimuth (degrees) Set time Set Azimuth (degrees) Duration Max altitude (degrees)

No matching passes for this satellites